Year,Month,Day,Hour,Minute,Value (Times are PST for temperature in C)
2016,08,23,00,00,12.90
2016,08,23,00,01,12.90
2016,08,23,00,02,12.90
2016,08,23,00,03,12.90
2016,08,23,00,04,12.90
2016,08,23,00,05,12.90
2016,08,23,00,06,12.90
2016,08,23,00,07,12.90
2016,08,23,00,08,12.90
2016,08,23,00,09,12.90
2016,08,23,00,10,12.90
2016,08,23,00,11,12.90
2016,08,23,00,12,12.90
2016,08,23,00,13,12.90
2016,08,23,00,14,12.90
2016,08,23,00,15,12.90
2016,08,23,00,16,12.90
2016,08,23,00,17,12.90
2016,08,23,00,18,12.80
2016,08,23,00,19,12.80
2016,08,23,00,20,12.80
2016,08,23,00,21,12.80
2016,08,23,00,22,12.80
2016,08,23,00,23,12.80
2016,08,23,00,24,12.80
2016,08,23,00,25,12.80
2016,08,23,00,26,12.80
2016,08,23,00,27,12.70
2016,08,23,00,28,12.70
2016,08,23,00,29,12.70
2016,08,23,00,30,12.70
2016,08,23,00,31,12.60
2016,08,23,00,32,12.60
2016,08,23,00,33,12.50
2016,08,23,00,34,12.50
2016,08,23,00,35,12.40
2016,08,23,00,36,12.40
2016,08,23,00,37,12.40
2016,08,23,00,38,12.30
2016,08,23,00,39,12.30
2016,08,23,00,40,12.30
2016,08,23,00,41,12.30
2016,08,23,00,42,12.30
2016,08,23,00,43,12.30
2016,08,23,00,44,12.20
2016,08,23,00,45,12.20
2016,08,23,00,46,12.30
2016,08,23,00,47,12.30
2016,08,23,00,48,12.30
2016,08,23,00,49,12.30
2016,08,23,00,50,12.30
2016,08,23,00,51,12.30
2016,08,23,00,52,12.30
2016,08,23,00,53,12.30
2016,08,23,00,54,12.30
2016,08,23,00,55,12.30
2016,08,23,00,56,12.30
2016,08,23,00,57,12.30
2016,08,23,00,58,12.20
2016,08,23,00,59,12.20
2016,08,23,01,00,12.20
2016,08,23,01,01,12.10
2016,08,23,01,02,12.10
2016,08,23,01,03,12.10
2016,08,23,01,04,12.10
2016,08,23,01,05,12.10
2016,08,23,01,06,12.10
2016,08,23,01,07,12.00
2016,08,23,01,08,12.00
2016,08,23,01,09,12.00
2016,08,23,01,10,12.00
2016,08,23,01,11,12.00
2016,08,23,01,12,12.00
2016,08,23,01,13,12.00
2016,08,23,01,14,12.00
2016,08,23,01,15,12.00
2016,08,23,01,16,12.00
2016,08,23,01,17,12.00
2016,08,23,01,18,12.00
2016,08,23,01,19,12.00
2016,08,23,01,20,12.00
2016,08,23,01,21,11.90
2016,08,23,01,22,11.90
2016,08,23,01,23,11.90
2016,08,23,01,24,11.90
2016,08,23,01,25,11.90
2016,08,23,01,26,11.90
2016,08,23,01,27,11.90
2016,08,23,01,28,11.90
2016,08,23,01,29,11.90
2016,08,23,01,30,11.90
2016,08,23,01,31,11.90
2016,08,23,01,32,11.90
2016,08,23,01,33,11.90
2016,08,23,01,34,11.90
2016,08,23,01,35,11.90
2016,08,23,01,36,11.80
2016,08,23,01,37,11.80
2016,08,23,01,38,11.80
2016,08,23,01,39,11.80
2016,08,23,01,40,11.80
2016,08,23,01,41,11.80
2016,08,23,01,42,11.80
2016,08,23,01,43,11.70
2016,08,23,01,44,11.70
2016,08,23,01,45,11.60
2016,08,23,01,46,11.60
2016,08,23,01,47,11.50
2016,08,23,01,48,11.50
2016,08,23,01,49,11.40
2016,08,23,01,50,11.40
2016,08,23,01,51,11.30
2016,08,23,01,52,11.30
2016,08,23,01,53,11.30
2016,08,23,01,54,11.20
2016,08,23,01,55,11.20
2016,08,23,01,56,11.20
2016,08,23,01,57,11.10
2016,08,23,01,58,11.10
2016,08,23,01,59,11.10
2016,08,23,02,00,11.10
2016,08,23,02,01,11.10
2016,08,23,02,02,11.00
2016,08,23,02,03,11.00
2016,08,23,02,04,11.10
2016,08,23,02,05,11.10
2016,08,23,02,06,11.10
2016,08,23,02,07,11.10
2016,08,23,02,08,11.10
2016,08,23,02,09,11.10
2016,08,23,02,10,11.10
2016,08,23,02,11,11.00
2016,08,23,02,12,11.00
2016,08,23,02,13,10.90
2016,08,23,02,14,10.90
2016,08,23,02,15,10.90
2016,08,23,02,16,10.90
2016,08,23,02,17,10.90
2016,08,23,02,18,10.90
2016,08,23,02,19,10.80
2016,08,23,02,20,10.80
2016,08,23,02,21,10.80
2016,08,23,02,22,10.80
2016,08,23,02,23,10.70
2016,08,23,02,24,10.70
2016,08,23,02,25,10.70
2016,08,23,02,26,10.70
2016,08,23,02,27,10.70
2016,08,23,02,28,10.60
2016,08,23,02,29,10.60
2016,08,23,02,30,10.60
2016,08,23,02,31,10.60
2016,08,23,02,32,10.60
2016,08,23,02,33,10.60
2016,08,23,02,34,10.60
2016,08,23,02,35,10.60
2016,08,23,02,36,10.60
2016,08,23,02,37,10.50
2016,08,23,02,38,10.40
2016,08,23,02,39,10.40
2016,08,23,02,40,10.30
2016,08,23,02,41,10.20
2016,08,23,02,42,10.20
2016,08,23,02,43,10.10
2016,08,23,02,44,10.10
2016,08,23,02,45,10.10
2016,08,23,02,46,10.10
2016,08,23,02,47,10.10
2016,08,23,02,48,10.10
2016,08,23,02,49,10.00
2016,08,23,02,50,10.00
2016,08,23,02,51,10.00
2016,08,23,02,52,10.00
2016,08,23,02,53,10.00
2016,08,23,02,54,10.00
2016,08,23,02,55,10.00
2016,08,23,02,56,10.00
2016,08,23,02,57,10.00
2016,08,23,02,58,10.00
2016,08,23,02,59,10.00
2016,08,23,03,00,10.00
2016,08,23,03,01,10.00
2016,08,23,03,02,10.00
2016,08,23,03,03,9.90
2016,08,23,03,04,10.00
2016,08,23,03,05,10.00
2016,08,23,03,06,10.00
2016,08,23,03,07,10.00
2016,08,23,03,08,9.90
2016,08,23,03,09,9.90
2016,08,23,03,10,9.90
2016,08,23,03,11,9.90
2016,08,23,03,12,9.90
2016,08,23,03,13,9.90
2016,08,23,03,14,9.90
2016,08,23,03,15,9.90
2016,08,23,03,16,9.90
2016,08,23,03,17,9.90
2016,08,23,03,18,9.90
2016,08,23,03,19,9.90
2016,08,23,03,20,9.90
2016,08,23,03,21,9.90
2016,08,23,03,22,9.90
2016,08,23,03,23,9.90
2016,08,23,03,24,9.90
2016,08,23,03,25,9.90
2016,08,23,03,26,9.90
2016,08,23,03,27,9.90
2016,08,23,03,28,9.90
2016,08,23,03,29,9.80
2016,08,23,03,30,9.80
2016,08,23,03,31,9.80
2016,08,23,03,32,9.80
2016,08,23,03,33,9.80
2016,08,23,03,34,9.70
2016,08,23,03,35,9.80
2016,08,23,03,36,9.80
2016,08,23,03,37,9.80
2016,08,23,03,38,9.80
2016,08,23,03,39,9.80
2016,08,23,03,40,9.80
2016,08,23,03,41,9.80
2016,08,23,03,42,9.80
2016,08,23,03,43,9.80
2016,08,23,03,44,9.80
2016,08,23,03,45,9.90
2016,08,23,03,46,9.90
2016,08,23,03,47,9.90
2016,08,23,03,48,9.90
2016,08,23,03,49,9.90
2016,08,23,03,50,10.00
2016,08,23,03,51,10.00
2016,08,23,03,52,10.10
2016,08,23,03,53,10.10
2016,08,23,03,54,10.10
2016,08,23,03,55,10.20
2016,08,23,03,56,10.20
2016,08,23,03,57,10.20
2016,08,23,03,58,10.30
2016,08,23,03,59,10.30
2016,08,23,04,00,10.30
2016,08,23,04,01,10.30
2016,08,23,04,02,10.20
2016,08,23,04,03,10.20
2016,08,23,04,04,10.20
2016,08,23,04,05,10.20
2016,08,23,04,06,10.20
2016,08,23,04,07,10.20
2016,08,23,04,08,10.30
2016,08,23,04,09,10.30
2016,08,23,04,10,10.40
2016,08,23,04,11,10.40
2016,08,23,04,12,10.50
2016,08,23,04,13,10.50
2016,08,23,04,14,10.60
2016,08,23,04,15,10.70
2016,08,23,04,16,10.70
2016,08,23,04,17,10.70
2016,08,23,04,18,10.80
2016,08,23,04,19,10.80
2016,08,23,04,20,10.90
2016,08,23,04,21,10.90
2016,08,23,04,22,11.00
2016,08,23,04,23,11.00
2016,08,23,04,24,11.10
2016,08,23,04,25,11.20
2016,08,23,04,26,11.20
2016,08,23,04,27,11.20
2016,08,23,04,28,11.20
2016,08,23,04,29,11.20
2016,08,23,04,30,11.30
2016,08,23,04,31,11.30
2016,08,23,04,32,11.30
2016,08,23,04,33,11.30
2016,08,23,04,34,11.30
2016,08,23,04,35,11.20
2016,08,23,04,36,11.20
2016,08,23,04,37,11.20
2016,08,23,04,38,11.20
2016,08,23,04,39,11.10
2016,08,23,04,40,11.10
2016,08,23,04,41,11.00
2016,08,23,04,42,11.00
2016,08,23,04,43,10.90
2016,08,23,04,44,10.80
2016,08,23,04,45,10.70
2016,08,23,04,46,10.60
2016,08,23,04,47,10.60
2016,08,23,04,48,10.50
2016,08,23,04,49,10.40
2016,08,23,04,50,10.40
2016,08,23,04,51,10.30
2016,08,23,04,52,10.30
2016,08,23,04,53,10.20
2016,08,23,04,54,10.20
2016,08,23,04,55,10.10
2016,08,23,04,56,10.10
2016,08,23,04,57,10.10
2016,08,23,04,58,10.10
2016,08,23,04,59,10.10
2016,08,23,05,00,10.10
2016,08,23,05,01,10.10
2016,08,23,05,02,10.10
2016,08,23,05,03,10.00
2016,08,23,05,04,10.00
2016,08,23,05,05,10.00
2016,08,23,05,06,10.00
2016,08,23,05,07,10.00
2016,08,23,05,08,10.00
2016,08,23,05,09,10.00
2016,08,23,05,10,10.00
2016,08,23,05,11,9.90
2016,08,23,05,12,9.90
2016,08,23,05,13,9.90
2016,08,23,05,14,9.80
2016,08,23,05,15,9.80
2016,08,23,05,16,9.70
2016,08,23,05,17,9.70
2016,08,23,05,18,9.60
2016,08,23,05,19,9.60
2016,08,23,05,20,9.50
2016,08,23,05,21,9.50
2016,08,23,05,22,9.50
2016,08,23,05,23,9.50
2016,08,23,05,24,9.50
2016,08,23,05,25,9.60
2016,08,23,05,26,9.60
2016,08,23,05,27,9.60
2016,08,23,05,28,9.70
2016,08,23,05,29,9.70
2016,08,23,05,30,9.70
2016,08,23,05,31,9.70
2016,08,23,05,32,9.80
2016,08,23,05,33,9.80
2016,08,23,05,34,9.80
2016,08,23,05,35,9.70
2016,08,23,05,36,9.60
2016,08,23,05,37,9.30
2016,08,23,05,38,9.10
2016,08,23,05,39,8.90
2016,08,23,05,40,8.80
2016,08,23,05,41,8.70
2016,08,23,05,42,8.70
2016,08,23,05,43,8.70
2016,08,23,05,44,8.60
2016,08,23,05,45,8.60
2016,08,23,05,46,8.60
2016,08,23,05,47,8.70
2016,08,23,05,48,8.70
2016,08,23,05,49,8.70
2016,08,23,05,50,8.80
2016,08,23,05,51,8.80
2016,08,23,05,52,8.80
2016,08,23,05,53,8.80
2016,08,23,05,54,8.80
2016,08,23,05,55,8.80
2016,08,23,05,56,8.80
2016,08,23,05,57,8.90
2016,08,23,05,58,8.90
2016,08,23,05,59,8.90
2016,08,23,06,00,8.90
2016,08,23,06,01,9.00
2016,08,23,06,02,9.00
2016,08,23,06,03,9.00
2016,08,23,06,04,9.00
2016,08,23,06,05,9.00
2016,08,23,06,06,9.00
2016,08,23,06,07,9.00
2016,08,23,06,08,9.00
2016,08,23,06,09,9.00
2016,08,23,06,10,9.10
2016,08,23,06,11,9.10
2016,08,23,06,12,9.10
2016,08,23,06,13,9.10
2016,08,23,06,14,9.10
2016,08,23,06,15,9.10
2016,08,23,06,16,9.10
2016,08,23,06,17,9.20
2016,08,23,06,18,9.20
2016,08,23,06,19,9.20
2016,08,23,06,20,9.20
2016,08,23,06,21,9.20
2016,08,23,06,22,9.20
2016,08,23,06,23,9.20
2016,08,23,06,24,9.20
2016,08,23,06,25,9.20
2016,08,23,06,26,9.20
2016,08,23,06,27,9.20
2016,08,23,06,28,9.10
2016,08,23,06,29,9.10
2016,08,23,06,30,9.10
2016,08,23,06,31,9.10
2016,08,23,06,32,9.10
2016,08,23,06,33,9.10
2016,08,23,06,34,9.00
2016,08,23,06,35,9.00
2016,08,23,06,36,9.00
2016,08,23,06,37,8.90
2016,08,23,06,38,8.90
2016,08,23,06,39,8.90
2016,08,23,06,40,8.90
2016,08,23,06,41,9.00
2016,08,23,06,42,9.00
2016,08,23,06,43,9.00
2016,08,23,06,44,9.00
2016,08,23,06,45,9.00
2016,08,23,06,46,9.00
2016,08,23,06,47,9.00
2016,08,23,06,48,9.00
2016,08,23,06,49,9.10
2016,08,23,06,50,9.10
2016,08,23,06,51,9.10
2016,08,23,06,52,9.10
2016,08,23,06,53,9.10
2016,08,23,06,54,9.10
2016,08,23,06,55,9.10
2016,08,23,06,56,9.10
2016,08,23,06,57,9.10
2016,08,23,06,58,9.10
2016,08,23,06,59,9.10
2016,08,23,07,00,9.10
2016,08,23,07,01,9.10
2016,08,23,07,02,9.10
2016,08,23,07,03,9.20
2016,08,23,07,04,9.20
2016,08,23,07,05,9.20
2016,08,23,07,06,9.20
2016,08,23,07,07,9.20
2016,08,23,07,08,9.30
2016,08,23,07,09,9.30
2016,08,23,07,10,9.30
2016,08,23,07,11,9.40
2016,08,23,07,12,9.40
2016,08,23,07,13,9.40
2016,08,23,07,14,9.50
2016,08,23,07,15,9.50
2016,08,23,07,16,9.60
2016,08,23,07,17,9.60
2016,08,23,07,18,9.70
2016,08,23,07,19,9.70
2016,08,23,07,20,9.70
2016,08,23,07,21,9.80
2016,08,23,07,22,9.80
2016,08,23,07,23,9.90
2016,08,23,07,24,10.00
2016,08,23,07,25,10.10
2016,08,23,07,26,10.10
2016,08,23,07,27,10.20
2016,08,23,07,28,10.20
2016,08,23,07,29,10.30
2016,08,23,07,30,10.30
2016,08,23,07,31,10.30
2016,08,23,07,32,10.40
2016,08,23,07,33,10.40
2016,08,23,07,34,10.50
2016,08,23,07,35,10.50
2016,08,23,07,36,10.60
2016,08,23,07,37,10.60
2016,08,23,07,38,10.70
2016,08,23,07,39,10.70
2016,08,23,07,40,10.80
2016,08,23,07,41,10.90
2016,08,23,07,42,10.90
2016,08,23,07,43,11.00
2016,08,23,07,44,11.10
2016,08,23,07,45,11.10
2016,08,23,07,46,11.20
2016,08,23,07,47,11.30
2016,08,23,07,48,11.40
2016,08,23,07,49,11.50
2016,08,23,07,50,11.60
2016,08,23,07,51,11.70
2016,08,23,07,52,11.70
2016,08,23,07,53,11.80
2016,08,23,07,54,11.90
2016,08,23,07,55,12.00
2016,08,23,07,56,12.00
2016,08,23,07,57,12.10
2016,08,23,07,58,12.20
2016,08,23,07,59,12.30
2016,08,23,08,00,12.30
2016,08,23,08,01,12.40
2016,08,23,08,02,12.40
2016,08,23,08,03,12.50
2016,08,23,08,04,12.50
2016,08,23,08,05,12.60
2016,08,23,08,06,12.70
2016,08,23,08,07,12.70
2016,08,23,08,08,12.70
2016,08,23,08,09,12.80
2016,08,23,08,10,12.80
2016,08,23,08,11,12.90
2016,08,23,08,12,12.90
2016,08,23,08,13,13.00
2016,08,23,08,14,13.00
2016,08,23,08,15,13.10
2016,08,23,08,16,13.20
2016,08,23,08,17,13.20
2016,08,23,08,18,13.20
2016,08,23,08,19,13.30
2016,08,23,08,20,13.30
2016,08,23,08,21,13.30
2016,08,23,08,22,13.30
2016,08,23,08,23,13.40
2016,08,23,08,24,13.40
2016,08,23,08,25,13.40
2016,08,23,08,26,13.50
2016,08,23,08,27,13.50
2016,08,23,08,28,13.50
2016,08,23,08,29,13.50
2016,08,23,08,30,13.60
2016,08,23,08,31,13.60
2016,08,23,08,32,13.60
2016,08,23,08,33,13.60
2016,08,23,08,34,13.60
2016,08,23,08,35,13.60
2016,08,23,08,36,13.60
2016,08,23,08,37,13.70
2016,08,23,08,38,13.70
2016,08,23,08,39,13.70
2016,08,23,08,40,13.80
2016,08,23,08,41,13.80
2016,08,23,08,42,13.80
2016,08,23,08,43,13.80
2016,08,23,08,44,13.90
2016,08,23,08,45,13.90
2016,08,23,08,46,13.90
2016,08,23,08,47,14.00
2016,08,23,08,48,14.00
2016,08,23,08,49,14.10
2016,08,23,08,50,14.10
2016,08,23,08,51,14.20
2016,08,23,08,52,14.20
2016,08,23,08,53,14.20
2016,08,23,08,54,14.30
2016,08,23,08,55,14.30
2016,08,23,08,56,14.40
2016,08,23,08,57,14.40
2016,08,23,08,58,14.40
2016,08,23,08,59,14.40
2016,08,23,09,00,14.50
2016,08,23,09,01,14.60
2016,08,23,09,02,14.70
2016,08,23,09,03,14.70
2016,08,23,09,04,14.70
2016,08,23,09,05,14.80
2016,08,23,09,06,14.80
2016,08,23,09,07,14.80
2016,08,23,09,08,14.80
2016,08,23,09,09,14.80
2016,08,23,09,10,14.90
2016,08,23,09,11,15.00
2016,08,23,09,12,15.00
2016,08,23,09,13,15.00
2016,08,23,09,14,15.10
2016,08,23,09,15,15.10
2016,08,23,09,16,15.10
2016,08,23,09,17,15.20
2016,08,23,09,18,15.20
2016,08,23,09,19,15.30
2016,08,23,09,20,15.30
2016,08,23,09,21,15.30
2016,08,23,09,22,15.30
2016,08,23,09,23,15.30
2016,08,23,09,24,15.40
2016,08,23,09,25,15.40
2016,08,23,09,26,15.50
2016,08,23,09,27,15.60
2016,08,23,09,28,15.70
2016,08,23,09,29,15.80
2016,08,23,09,30,15.80
2016,08,23,09,31,15.90
2016,08,23,09,32,15.90
2016,08,23,09,33,16.00
2016,08,23,09,34,16.00
2016,08,23,09,35,16.10
2016,08,23,09,36,16.10
2016,08,23,09,37,16.10
2016,08,23,09,38,16.20
2016,08,23,09,39,16.20
2016,08,23,09,40,16.20
2016,08,23,09,41,16.20
2016,08,23,09,42,16.30
2016,08,23,09,43,16.30
2016,08,23,09,44,16.40
2016,08,23,09,45,16.50
2016,08,23,09,46,16.50
2016,08,23,09,47,16.60
2016,08,23,09,48,16.70
2016,08,23,09,49,16.70
2016,08,23,09,50,16.80
2016,08,23,09,51,16.90
2016,08,23,09,52,16.90
2016,08,23,09,53,16.90
2016,08,23,09,54,17.00
2016,08,23,09,55,17.10
2016,08,23,09,56,17.10
2016,08,23,09,57,17.10
2016,08,23,09,58,17.20
2016,08,23,09,59,17.20
2016,08,23,10,00,17.30
2016,08,23,10,01,17.30
2016,08,23,10,02,17.30
2016,08,23,10,03,17.40
2016,08,23,10,04,17.40
2016,08,23,10,05,17.40
2016,08,23,10,06,17.30
2016,08,23,10,07,17.30
2016,08,23,10,08,17.30
2016,08,23,10,09,17.30
2016,08,23,10,10,17.40
2016,08,23,10,11,17.40
2016,08,23,10,12,17.40
2016,08,23,10,13,17.40
2016,08,23,10,14,17.50
2016,08,23,10,15,17.60
2016,08,23,10,16,17.60
2016,08,23,10,17,17.60
2016,08,23,10,18,17.60
2016,08,23,10,19,17.70
2016,08,23,10,20,17.70
2016,08,23,10,21,17.80
2016,08,23,10,22,17.90
2016,08,23,10,23,18.00
2016,08,23,10,24,18.00
2016,08,23,10,25,18.10
2016,08,23,10,26,18.10
2016,08,23,10,27,18.00
2016,08,23,10,28,18.00
2016,08,23,10,29,17.90
2016,08,23,10,30,17.90
2016,08,23,10,31,17.80
2016,08,23,10,32,17.80
2016,08,23,10,33,17.80
2016,08,23,10,34,17.80
2016,08,23,10,35,17.90
2016,08,23,10,36,17.90
2016,08,23,10,37,17.90
2016,08,23,10,38,18.00
2016,08,23,10,39,18.00
2016,08,23,10,40,18.10
2016,08,23,10,41,18.10
2016,08,23,10,42,18.10
2016,08,23,10,43,18.10
2016,08,23,10,44,18.10
2016,08,23,10,45,18.10
2016,08,23,10,46,18.10
2016,08,23,10,47,18.10
2016,08,23,10,48,18.20
2016,08,23,10,49,18.30
2016,08,23,10,50,18.40
2016,08,23,10,51,18.40
2016,08,23,10,52,18.50
2016,08,23,10,53,18.60
2016,08,23,10,54,18.60
2016,08,23,10,55,18.60
2016,08,23,10,56,18.60
2016,08,23,10,57,18.70
2016,08,23,10,58,18.70
2016,08,23,10,59,18.70
2016,08,23,11,00,18.60
2016,08,23,11,01,18.60
2016,08,23,11,02,18.60
2016,08,23,11,03,18.60
2016,08,23,11,04,18.60
2016,08,23,11,05,18.60
2016,08,23,11,06,18.60
2016,08,23,11,07,18.70
2016,08,23,11,08,18.70
2016,08,23,11,09,18.80
2016,08,23,11,10,18.80
2016,08,23,11,11,18.80
2016,08,23,11,12,18.80
2016,08,23,11,13,18.80
2016,08,23,11,14,18.80
2016,08,23,11,15,18.80
2016,08,23,11,16,18.80
2016,08,23,11,17,18.90
2016,08,23,11,18,18.90
2016,08,23,11,19,19.00
2016,08,23,11,20,19.10
2016,08,23,11,21,19.10
2016,08,23,11,22,19.10
2016,08,23,11,23,19.10
2016,08,23,11,24,19.20
2016,08,23,11,25,19.30
2016,08,23,11,26,19.30
2016,08,23,11,27,19.40
2016,08,23,11,28,19.50
2016,08,23,11,29,19.50
2016,08,23,11,30,19.60
2016,08,23,11,31,19.50
2016,08,23,11,32,19.50
2016,08,23,11,33,19.50
2016,08,23,11,34,19.50
2016,08,23,11,35,19.60
2016,08,23,11,36,19.60
2016,08,23,11,37,19.70
2016,08,23,11,38,19.80
2016,08,23,11,39,19.80
2016,08,23,11,40,19.90
2016,08,23,11,41,19.90
2016,08,23,11,42,19.80
2016,08,23,11,43,19.90
2016,08,23,11,44,19.90
2016,08,23,11,45,20.00
2016,08,23,11,46,20.10
2016,08,23,11,47,20.10
2016,08,23,11,48,20.10
2016,08,23,11,49,20.10
2016,08,23,11,50,20.10
2016,08,23,11,51,20.00
2016,08,23,11,52,20.00
2016,08,23,11,53,20.10
2016,08,23,11,54,20.20
2016,08,23,11,55,20.10
2016,08,23,11,56,20.10
2016,08,23,11,57,20.10
2016,08,23,11,58,20.00
2016,08,23,11,59,20.10
2016,08,23,12,00,20.10
2016,08,23,12,01,20.10
2016,08,23,12,02,20.20
2016,08,23,12,03,20.20
2016,08,23,12,04,20.20
2016,08,23,12,05,20.30
2016,08,23,12,06,20.30
2016,08,23,12,07,20.30
2016,08,23,12,08,20.30
2016,08,23,12,09,20.40
2016,08,23,12,10,20.40
2016,08,23,12,11,20.40
2016,08,23,12,12,20.40
2016,08,23,12,13,20.50
2016,08,23,12,14,20.50
2016,08,23,12,15,20.60
2016,08,23,12,16,20.60
2016,08,23,12,17,20.60
2016,08,23,12,18,20.60
2016,08,23,12,19,20.60
2016,08,23,12,20,20.70
2016,08,23,12,21,20.70
2016,08,23,12,22,20.70
2016,08,23,12,23,20.70
2016,08,23,12,24,20.80
2016,08,23,12,25,20.80
2016,08,23,12,26,20.80
2016,08,23,12,27,20.90
2016,08,23,12,28,21.00
2016,08,23,12,29,21.00
2016,08,23,12,30,21.10
2016,08,23,12,31,21.10
2016,08,23,12,32,21.10
2016,08,23,12,33,21.10
2016,08,23,12,34,21.10
2016,08,23,12,35,21.10
2016,08,23,12,36,21.10
2016,08,23,12,37,21.10
2016,08,23,12,38,21.10
2016,08,23,12,39,21.10
2016,08,23,12,40,21.20
2016,08,23,12,41,21.20
2016,08,23,12,42,21.20
2016,08,23,12,43,21.30
2016,08,23,12,44,21.30
2016,08,23,12,45,21.30
2016,08,23,12,46,21.30
2016,08,23,12,47,21.30
2016,08,23,12,48,21.40
2016,08,23,12,49,21.40
2016,08,23,12,50,21.40
2016,08,23,12,51,21.30
2016,08,23,12,52,21.30
2016,08,23,12,53,21.40
2016,08,23,12,54,21.40
2016,08,23,12,55,21.50
2016,08,23,12,56,21.60
2016,08,23,12,57,21.70
2016,08,23,12,58,21.80
2016,08,23,12,59,21.80
2016,08,23,13,00,21.80
2016,08,23,13,01,21.80
2016,08,23,13,02,21.80
2016,08,23,13,03,21.80
2016,08,23,13,04,21.70
2016,08,23,13,05,21.70
2016,08,23,13,06,21.60
2016,08,23,13,07,21.70
2016,08,23,13,08,21.70
2016,08,23,13,09,21.80
2016,08,23,13,10,21.80
2016,08,23,13,11,21.80
2016,08,23,13,12,21.80
2016,08,23,13,13,21.80
2016,08,23,13,14,21.80
2016,08,23,13,15,21.80
2016,08,23,13,16,21.80
2016,08,23,13,17,21.80
2016,08,23,13,18,21.80
2016,08,23,13,19,21.90
2016,08,23,13,20,21.90
2016,08,23,13,21,21.90
2016,08,23,13,22,21.90
2016,08,23,13,23,21.90
2016,08,23,13,24,21.90
2016,08,23,13,25,21.90
2016,08,23,13,26,21.90
2016,08,23,13,27,21.80
2016,08,23,13,28,21.80
2016,08,23,13,29,21.80
2016,08,23,13,30,21.80
2016,08,23,13,31,21.80
2016,08,23,13,32,21.90
2016,08,23,13,33,21.90
2016,08,23,13,34,21.90
2016,08,23,13,35,21.90
2016,08,23,13,36,21.90
2016,08,23,13,37,21.90
2016,08,23,13,38,21.90
2016,08,23,13,39,21.90
2016,08,23,13,40,21.90
2016,08,23,13,41,21.90
2016,08,23,13,42,22.00
2016,08,23,13,43,22.00
2016,08,23,13,44,22.10
2016,08,23,13,45,22.10
2016,08,23,13,46,22.10
2016,08,23,13,47,22.20
2016,08,23,13,48,22.20
2016,08,23,13,49,22.20
2016,08,23,13,50,22.30
2016,08,23,13,51,22.30
2016,08,23,13,52,22.40
2016,08,23,13,53,22.40
2016,08,23,13,54,22.50
2016,08,23,13,55,22.60
2016,08,23,13,56,22.70
2016,08,23,13,57,22.70
2016,08,23,13,58,22.70
2016,08,23,13,59,22.80
2016,08,23,14,00,22.80
2016,08,23,14,01,22.80
2016,08,23,14,02,22.90
2016,08,23,14,03,22.90
2016,08,23,14,04,22.90
2016,08,23,14,05,22.90
2016,08,23,14,06,22.90
2016,08,23,14,07,22.90
2016,08,23,14,08,22.80
2016,08,23,14,09,22.80
2016,08,23,14,10,22.80
2016,08,23,14,11,22.80
2016,08,23,14,12,22.80
2016,08,23,14,13,22.80
2016,08,23,14,14,22.90
2016,08,23,14,15,22.90
2016,08,23,14,16,23.00
2016,08,23,14,17,23.00
2016,08,23,14,18,23.00
2016,08,23,14,19,23.00
2016,08,23,14,20,23.00
2016,08,23,14,21,23.00
2016,08,23,14,22,23.00
2016,08,23,14,23,23.10
2016,08,23,14,24,23.10
2016,08,23,14,25,23.20
2016,08,23,14,26,23.20
2016,08,23,14,27,23.30
2016,08,23,14,28,23.30
2016,08,23,14,29,23.30
2016,08,23,14,30,23.30
2016,08,23,14,31,23.40
2016,08,23,14,32,23.50
2016,08,23,14,33,23.60
2016,08,23,14,34,23.60
2016,08,23,14,35,23.60
2016,08,23,14,36,23.70
2016,08,23,14,37,23.70
2016,08,23,14,38,23.70
2016,08,23,14,39,23.80
2016,08,23,14,40,23.90
2016,08,23,14,41,23.90
2016,08,23,14,42,24.00
2016,08,23,14,43,24.00
2016,08,23,14,44,24.00
2016,08,23,14,45,24.00
2016,08,23,14,46,24.00
2016,08,23,14,47,24.00
2016,08,23,14,48,24.10
2016,08,23,14,49,24.10
2016,08,23,14,50,24.10
2016,08,23,14,51,24.00
2016,08,23,14,52,23.90
2016,08,23,14,53,23.90
2016,08,23,14,54,23.80
2016,08,23,14,55,23.80
2016,08,23,14,56,23.80
2016,08,23,14,57,23.80
2016,08,23,14,58,23.80
2016,08,23,14,59,23.80
2016,08,23,15,00,23.80
2016,08,23,15,01,23.80
2016,08,23,15,02,23.80
2016,08,23,15,03,23.90
2016,08,23,15,04,24.00
2016,08,23,15,05,24.10
2016,08,23,15,06,24.10
2016,08,23,15,07,24.20
2016,08,23,15,08,24.30
2016,08,23,15,09,24.30
2016,08,23,15,10,24.40
2016,08,23,15,11,24.50
2016,08,23,15,12,24.50
2016,08,23,15,13,24.50
2016,08,23,15,14,24.50
2016,08,23,15,15,24.60
2016,08,23,15,16,24.60
2016,08,23,15,17,24.70
2016,08,23,15,18,24.70
2016,08,23,15,19,24.60
2016,08,23,15,20,24.60
2016,08,23,15,21,24.50
2016,08,23,15,22,24.50
2016,08,23,15,23,24.60
2016,08,23,15,24,24.70
2016,08,23,15,25,24.80
2016,08,23,15,26,24.80
2016,08,23,15,27,24.80
2016,08,23,15,28,24.80
2016,08,23,15,29,24.90
2016,08,23,15,30,24.90
2016,08,23,15,31,24.80
2016,08,23,15,32,24.80
2016,08,23,15,33,24.70
2016,08,23,15,34,24.70
2016,08,23,15,35,24.70
2016,08,23,15,36,24.70
2016,08,23,15,37,24.70
2016,08,23,15,38,24.80
2016,08,23,15,39,24.90
2016,08,23,15,40,24.90
2016,08,23,15,41,25.00
2016,08,23,15,42,25.00
2016,08,23,15,43,25.10
2016,08,23,15,44,25.10
2016,08,23,15,45,25.10
2016,08,23,15,46,25.00
2016,08,23,15,47,24.90
2016,08,23,15,48,24.90
2016,08,23,15,49,24.90
2016,08,23,15,50,24.90
2016,08,23,15,51,25.00
2016,08,23,15,52,25.10
2016,08,23,15,53,25.10
2016,08,23,15,54,25.20
2016,08,23,15,55,25.30
2016,08,23,15,56,25.30
2016,08,23,15,57,25.40
2016,08,23,15,58,25.40
2016,08,23,15,59,25.40
2016,08,23,16,00,25.40
2016,08,23,16,01,25.40
2016,08,23,16,02,25.40
2016,08,23,16,03,25.30
2016,08,23,16,04,25.30
2016,08,23,16,05,25.20
2016,08,23,16,06,25.20
2016,08,23,16,07,25.20
2016,08,23,16,08,25.20
2016,08,23,16,09,25.20
2016,08,23,16,10,25.20
2016,08,23,16,11,25.20
2016,08,23,16,12,25.20
2016,08,23,16,13,25.20
2016,08,23,16,14,25.30
2016,08,23,16,15,25.30
2016,08,23,16,16,25.40
2016,08,23,16,17,25.50
2016,08,23,16,18,25.50
2016,08,23,16,19,25.50
2016,08,23,16,20,25.50
2016,08,23,16,21,25.50
2016,08,23,16,22,25.50
2016,08,23,16,23,25.50
2016,08,23,16,24,25.50
2016,08,23,16,25,25.50
2016,08,23,16,26,25.50
2016,08,23,16,27,25.50
2016,08,23,16,28,25.60
2016,08,23,16,29,25.70
2016,08,23,16,30,25.70
2016,08,23,16,31,25.60
2016,08,23,16,32,25.70
2016,08,23,16,33,25.70
2016,08,23,16,34,25.70
2016,08,23,16,35,25.70
2016,08,23,16,36,25.70
2016,08,23,16,37,25.70
2016,08,23,16,38,25.80
2016,08,23,16,39,25.90
2016,08,23,16,40,25.90
2016,08,23,16,41,25.90
2016,08,23,16,42,25.90
2016,08,23,16,43,25.90
2016,08,23,16,44,25.90
2016,08,23,16,45,25.90
2016,08,23,16,46,25.80
2016,08,23,16,47,25.80
2016,08,23,16,48,25.80
2016,08,23,16,49,25.70
2016,08,23,16,50,25.70
2016,08,23,16,51,25.60
2016,08,23,16,52,25.60
2016,08,23,16,53,25.70
2016,08,23,16,54,25.70
2016,08,23,16,55,25.70
2016,08,23,16,56,25.70
2016,08,23,16,57,25.70
2016,08,23,16,58,25.60
2016,08,23,16,59,25.60
2016,08,23,17,00,25.60
2016,08,23,17,01,25.60
2016,08,23,17,02,25.60
2016,08,23,17,03,25.60
2016,08,23,17,04,25.70
2016,08,23,17,05,25.70
2016,08,23,17,06,25.80
2016,08,23,17,07,25.80
2016,08,23,17,08,25.80
2016,08,23,17,09,25.80
2016,08,23,17,10,25.80
2016,08,23,17,11,25.80
2016,08,23,17,12,25.90
2016,08,23,17,13,26.00
2016,08,23,17,14,26.00
2016,08,23,17,15,26.10
2016,08,23,17,16,26.20
2016,08,23,17,17,26.20
2016,08,23,17,18,26.20
2016,08,23,17,19,26.20
2016,08,23,17,20,26.20
2016,08,23,17,21,26.20
2016,08,23,17,22,26.30
2016,08,23,17,23,26.30
2016,08,23,17,24,26.30
2016,08,23,17,25,26.30
2016,08,23,17,26,26.30
2016,08,23,17,27,26.30